Location: Newark
(12.4436°N, 0.6167°W)
Time: 11:35:48
(UTC+00:00)

Explorer 11/Cluster Stage 4 - All Passes

Search period start: 07 December 2019 00:00
Search period end: 17 December 2019 00:00
Orbit: 467 x 1259 km, 28.8° (Epoch: 06 December)

Date Brightness Start Highest point End Pass type
(mag) Time Alt. Az. Time Alt. Az. Time Alt. Az.
07 Dec - 07:33:31 10° SSW 07:40:16 32° SSE 07:46:07 10° E daylight
07 Dec - 09:22:14 10° WSW 09:29:28 82° NNW 09:35:13 10° ENE daylight
07 Dec - 11:13:27 10° WNW 11:18:22 25° NNW 11:22:30 10° NNE daylight
07 Dec - 16:43:22 10° NW 16:46:23 24° NNE 16:49:25 10° E daylight
07 Dec - 18:31:05 10° WNW 18:34:36 48° SSW 18:38:31 10° SE visible
08 Dec - 05:37:20 10° S 05:39:51 12° SSE 05:42:17 10° SE visible
08 Dec - 07:22:15 10° SW 07:29:31 38° SSE 07:35:49 10° E daylight
08 Dec - 09:11:20 10° WSW 09:18:43 71° NNW 09:24:40 10° ENE daylight
08 Dec - 11:02:52 10° WNW 11:07:47 23° NNW 11:11:56 10° NNE daylight
08 Dec - 12:56:30 10° NNW 12:57:16 10° N 12:58:01 10° N daylight
08 Dec - 14:46:11 10° N 14:46:56 10° N 14:47:40 10° NNE daylight
08 Dec - 16:32:37 10° NW 16:35:55 30° NNE 16:39:09 10° E daylight
08 Dec - 18:20:46 10° W 18:24:05 35° SSW 18:27:41 10° SE visible
09 Dec - 05:25:02 10° S 05:29:07 14° SSE 05:33:06 10° ESE visible
09 Dec - 07:11:03 10° SW 07:18:43 46° SSE 07:25:25 10° E daylight
09 Dec - 09:00:29 10° WSW 09:07:58 62° NNW 09:14:05 10° NE daylight
09 Dec - 10:52:18 10° WNW 10:57:11 22° NNW 11:01:23 10° NNE daylight
09 Dec - 12:45:30 10° NNW 12:46:51 11° N 12:48:08 10° N daylight
09 Dec - 14:34:43 10° NNW 14:36:32 12° N 14:38:16 10° NE daylight
09 Dec - 16:21:53 10° NW 16:25:26 39° NNE 16:28:50 10° E daylight
09 Dec - 18:10:30 10° W 18:13:33 26° SSW 18:16:45 10° SSE visible
10 Dec - 05:13:16 10° S 05:18:22 18° SSE 05:23:20 10° ESE visible
10 Dec - 06:59:56 10° SW 07:07:53 54° SSE 07:14:56 10° ENE daylight
10 Dec - 08:49:40 10° WSW 08:57:12 54° NNW 09:03:28 10° NE daylight
10 Dec - 10:41:43 10° WNW 10:46:37 21° NNW 10:50:50 10° NNE daylight
10 Dec - 12:34:31 10° NNW 12:36:25 12° N 12:38:12 10° NNE daylight
10 Dec - 14:23:34 10° NNW 14:26:07 15° NNE 14:28:28 10° NE daylight
10 Dec - 16:11:10 10° NW 16:14:57 52° NNE 16:18:28 10° ESE daylight
10 Dec - 18:00:22 10° WSW 18:03:01 19° SSW 18:05:44 10° SSE visible
11 Dec - 05:01:44 10° SSW 05:07:34 21° SSE 05:13:18 10° ESE visible
11 Dec - 06:48:53 10° SW 06:57:02 64° SSE 07:04:21 10° ENE daylight
11 Dec - 08:38:54 10° W 08:46:26 48° NNW 08:52:49 10° NE daylight
11 Dec - 10:31:08 10° WNW 10:36:02 20° NNW 10:40:19 10° NNE daylight
11 Dec - 12:23:32 10° NNW 12:25:59 13° N 12:28:15 10° NNE daylight
11 Dec - 14:12:30 10° NNW 14:15:41 18° NNE 14:18:32 10° ENE daylight
11 Dec - 16:00:28 10° WNW 16:04:27 70° NNE 16:08:03 10° ESE daylight
11 Dec - 17:50:25 10° WSW 17:52:28 14° SSW 17:54:32 10° S daylight
12 Dec - 04:50:22 10° SSW 04:56:44 25° SSE 05:03:04 10° E visible
12 Dec - 06:37:53 10° SW 06:46:09 74° SSE 06:53:44 10° ENE daylight
12 Dec - 08:28:10 10° W 08:35:40 43° NNW 08:42:08 10° NE daylight
12 Dec - 10:20:31 10° WNW 10:25:28 20° NNW 10:29:49 10° NNE daylight
12 Dec - 12:12:32 10° NNW 12:15:33 14° N 12:18:17 10° NNE daylight
12 Dec - 14:01:28 10° NW 14:05:15 22° NNE 14:08:31 10° ENE daylight
12 Dec - 15:49:46 10° WNW 15:53:56 87° SSW 15:57:36 10° ESE daylight
12 Dec - 17:40:59 10° SW 17:41:54 11° SSW 17:42:49 10° SSW daylight
13 Dec - 04:39:07 10° SSW 04:45:52 29° SSE 04:52:42 10° E visible
13 Dec - 06:26:57 10° WSW 06:35:16 84° SSE 06:43:03 10° ENE daylight
13 Dec - 08:17:29 10° W 08:24:55 39° NNW 08:31:27 10° NE daylight
13 Dec - 10:09:53 10° NW 10:14:55 20° NNW 10:19:20 10° NE daylight
13 Dec - 12:01:31 10° NW 12:05:06 16° N 12:08:17 10° NE daylight
13 Dec - 13:50:28 10° NW 13:54:47 27° NNE 13:58:26 10° ENE daylight
13 Dec - 15:39:06 10° WNW 15:43:23 66° SSW 15:47:05 10° SE daylight
14 Dec - 04:27:58 10° SSW 04:34:58 34° SSE 04:42:13 10° E visible
14 Dec - 06:16:05 10° WSW 06:24:23 86° NNW 06:32:19 10° ENE daylight
14 Dec - 08:06:49 10° W 08:14:10 36° NNW 08:20:44 10° NE daylight
14 Dec - 09:59:13 10° NW 10:04:21 20° N 10:08:54 10° NE daylight
14 Dec - 11:50:29 10° NW 11:54:38 18° N 11:58:16 10° NE daylight
14 Dec - 13:39:28 10° NW 13:44:17 33° NNE 13:48:16 10° E daylight
14 Dec - 15:28:27 10° WNW 15:32:49 50° SSW 15:36:32 10° SE daylight
15 Dec - 04:16:55 10° SW 04:24:04 39° SSE 04:31:38 10° E visible
15 Dec - 06:05:17 10° WSW 06:13:31 76° NNW 06:21:32 10° ENE daylight
15 Dec - 07:56:12 10° W 08:03:25 33° NNW 08:10:01 10° NE daylight
15 Dec - 09:48:31 10° NW 09:53:47 20° N 09:58:29 10° NE daylight
15 Dec - 11:39:27 10° NW 11:44:09 20° N 11:48:12 10° NE daylight
15 Dec - 13:28:29 10° NW 13:33:47 41° NNE 13:38:03 10° E daylight
15 Dec - 15:17:50 10° W 15:22:12 39° SSW 15:25:54 10° SE daylight
16 Dec - 02:21:30 10° SSE 02:24:08 12° SE 02:26:53 10° SE visible
16 Dec - 04:05:56 10° SW 04:13:10 46° SSE 04:20:58 10° ENE visible
16 Dec - 05:54:33 10° WSW 06:02:38 67° NNW 06:10:43 10° NE visible
16 Dec - 07:45:37 10° WNW 07:52:42 31° NNW 07:59:17 10° NE daylight
16 Dec - 09:37:47 10° NW 09:43:14 20° N 09:48:06 10° NE daylight
16 Dec - 11:28:24 10° NW 11:33:38 23° N 11:38:06 10° ENE daylight
16 Dec - 13:17:31 10° NW 13:23:13 51° NNE 13:27:46 10° E daylight
16 Dec - 15:07:16 10° W 15:11:34 31° SW 15:15:13 10° SSE daylight
